Location: Killam
(52.7910°N, 111.8608°W)
Time: 01:21:09
(UTC+00:00)

AO-85 - Pass Details

Date: 08 December 2023
Orbit: 516 x 753 km, 64.8° (Epoch: 04 January)

Event Time Altitude Azimuth Distance (km) Brightness Sun altitude
Rises 03:20:36 0° 315° (NW) 2,858 ? -36.1°
Reaches altitude 10° 03:22:48 10° 312° (NW) 1,987 ? -36.4°
Enters shadow 03:23:25 14° 311° (NW) 1,752 ? -36.5°
